Showing default

EUTE 21B, 38992

Orbit data source: Space-Track

EUTE 21B, 38992 is a payload satellite owned by EutelsatSA (FR) in GEO that was launched on Sat, 10 Nov 2012 UTC via an ARIANE 5ECA launch vehicle from the French Guiana (FRGUI). Payload-class satellites include a variety of spacecraft equipped with specific instruments for various scientific and technological missions. These include communications satellites like Starlink; space stations such as the ISS; scientific satellites like the Hubble; Earth observation satellites from companies like Planet Labs, Umbra, and HawkEye 360; GPS; miniature CubeSats for education and research; and military/defense satellites.

Not visible in the next 10 days
Identifier
38992, 2012-062B
Orbit
GEO
Last TLE update
19 hours ago
Origin
Manufacturer
Thales Alenia
Mission
Operational Commercial Communications
Bus & Motor
SPACEBUS 4000C3, S400
Mass
5,012 kg wet, 2,060 kg dry
Launch date (UTC)
2012-11-10 (12 years ago)
Launch vehicle
ARIANE 5ECA
Launch site
French Guiana (FRGUI)
Object type
Payload
Rocket body
Debris
Shape & HBR
Box + 2 Pan, 37 m
Radar Cross Section
34.184 m², Large (>1 m²)

Expand to show TLE details & history

TLE from 19 hours ago
0 EUTE 21B
1 38992U 12062B   25128.88642352  .00000135  00000-0  00000-0 0  9997
2 38992   0.0720  10.6580 0002827  39.1734 157.8245  1.00272191 45776
Epoch: 2025-05-08T21:16Z
Definitive object data (Epoch: 2025-05-08T21:16:26.992Z)
Latitude
-0.03935°
Longitude
21.60231°
Altitude
35,797.073 km
Speed
3.074 km/s
True Right ascension
13h 50m 39s
True Declination
0° 02' 22"
Sunlit
Object was in daylight at TLE epoch
Visualization TLE readout
Latitude
0.04046°
Longitude
-53.86242°
Altitude
35,784.285 km
Speed
3.075 km/s
Apparent Right ascension
09h 08m 42s
Apparent Declination
-5° 06' 07"
Sunlit
Object is in daylight
Visualization observer readout
Local Sidereal Time
00:21:50
Azimuth
64.346° ENE
Elevation
-34.431°
Doppler factor
1
Orbital elements
Apogee altitude
35,799.472 km
Perigee altitude
35,775.631 km
Semi-major axis
42,165.689 km
Eccentricity
0.0002827
Inclination
0.072°
RAAN
10.658°
Arg. of periapsis
39.1734°
True anomaly
157.83672°
Mean anomaly
157.8245°
Eccentric anomaly
157.83061°
Mean motion
0.25067 °/min
BSTAR
Unknown
Orbital period
1436.14 mins
Loading historical data...
38992 neighbors
Loading maneuver chart data...
Loading SW <> Apogee altitude chart data...
Loading historical data...
Loading historical data...
Loading historical data...
Loading historical data...
Loading historical data...
Loading historical data...
Loading historical data...
Other satellites on launch #62 in the year 2012 (2012-11-10 UTC)

EUTE 21B Visibility forecast

Observer location: undefined°, undefined°

EUTE 21B is not visible in the next 10 days
Span
Click to sort rows by Start time (UTC) header in descending order
Start Az.
Max El. time (UTC)
Max El. Az.
Max El.
End time (UTC)
End Az.
|